Hourly Data Report for April 21, 2018

KUGAARUK CLIMATE
NUNAVUT
Current Station Operator: ECCC - MSC

68°32'15.060" N
89°47'47.020" W
15.80 m
2303094
71407
NBB

Download Data

Hourly Data (April 2018)
Hourly Data Report for April 21, 2018
TIME
LST
Temp Definition
°C
Dew Point Definition
°C
Rel Hum Definition
%
Precip. Amount Definition
mm

Wind Dir Definition
10's deg

Wind Spd Definition
km/h
Visibility Definition
km
Stn Press Definition
kPa
Hmdx Definition


Wind Chill Definition


Weather Definition


00:00 -5.5 -7.0 89 0.0 10 5   100.87   -8 LegendNANA
01:00 -6.0 -7.1 92 0.0 8 5   100.81   -8 LegendNANA
02:00 -7.1 -8.3 91 0.6 6 15   100.73   -13 LegendNANA
03:00 -7.0 -8.3 91 0.0 6 12   100.68   -12 LegendNANA
04:00 -7.9 -9.2 90 0.0 3 14   100.62   -14 LegendNANA
05:00 -7.7 -9.1 90 0.2 4 12   100.54   -13 LegendNANA
06:00 -6.6 -7.9 90 0.3 6 3   100.46   -8 LegendNANA
07:00 -4.9 -6.8 87 0.2 17 3   100.42   -6 LegendNANA
08:00 -5.7 -8.3 82 0.0 25 4   100.38   -8 LegendNANA
09:00 -5.0 -8.4 77 0.3 27 5   100.34   -7 LegendNANA
10:00 -5.4 -9.2 74 0.0 32 11   100.35   -10 LegendNANA
11:00 -5.9 -9.6 75 0.0 34 15   100.37   -12 LegendNANA
12:00 -6.4 -10.3 74 0.0 34 12   100.45   -12 LegendNANA
13:00 -9.3 -12.3 79 0.2 34 28   100.52   -18 LegendNANA
14:00 -10.9 -13.6 81 0.0 33 34   100.67   -21 LegendNANA
15:00 -11.5 -13.9 83 0.0 34 30   100.78   -21 LegendNANA
16:00 -11.6 -13.6 85 0.2 31 31   100.92   -22 LegendNANA
17:00 -12.2 -14.1 86 0.0 31 28   101.05   -22 LegendNANA
18:00 -12.4 -14.5 84 0.3 31 31   101.16   -23 LegendNANA
19:00 -15.5 -17.9 82 0.0 29 27   101.29   -26 LegendNANA
20:00 -19.0 -21.6 80 0.0 27 32   101.39   -32 LegendNANA
21:00 -20.8 -23.5 79 0.2 27 21   101.50   -32 LegendNANA
22:00 -21.4 -24.3 77 0.0 26 32   101.56   -35 LegendNANA
23:00 -22.5 -25.7 76 0.0 26 15   101.67   -32 LegendNANA

Notes on Data Quality.

Legend

  • E = Estimated
  • M = Missing
  • NA = Not Available*
  • [empty] = Indicates an unobserved value
Date modified: